Stations météo

réclame
Mon MeteoGroup
Goteborg/Landvetter, Suède (2526): Température de l'air & dewpoint: 18.06.2019 11:00:00 - 24.06.2019 11:00:00 (CEST)Goteborg/Landvetter, Suède (2526): Vitesse du vent: 18.06.2019 11:00:00 - 24.06.2019 11:00:00 (CEST)Goteborg/Landvetter, Suède (2526): Direction du vent: 18.06.2019 11:00:00 - 24.06.2019 11:00:00 (CEST)Goteborg/Landvetter, Suède (2526): reduced air pressure: 18.06.2019 11:00:00 - 24.06.2019 11:00:00 (CEST)Goteborg/Landvetter, Suède (2526): visibility: 18.06.2019 11:00:00 - 24.06.2019 11:00:00 (CEST)
Date & Time tt [°C] td [°C] ff [km/h] ff [knt] dd ppp [hPa] vv [km]
24.06.2019 11:00:00 - - - - - - -
24.06.2019 10:00:00 17,0 5,0 4 2 E 1028,4 50
24.06.2019 09:00:00 16,3 6,1 7 4 ENE 1028,4 45
24.06.2019 08:00:00 14,3 7,4 11 6 NE 1028,3 40
24.06.2019 07:00:00 12,3 5,5 7 4 ENE 1028,8 50
24.06.2019 06:00:00 9,4 6,5 7 4 SE 1029,0 50
24.06.2019 05:00:00 10,0 6,0 4 2 NE 1028,5 50
24.06.2019 04:00:00 10,2 6,3 0 0 N 1028,3 50
24.06.2019 03:00:00 9,3 5,7 4 2 NE 1028,0 50
24.06.2019 02:00:00 9,1 5,1 4 2 NNE 1027,9 50
24.06.2019 01:00:00 10,7 4,8 7 4 NNW 1027,5 50
24.06.2019 00:00:00 11,1 4,8 7 4 NW 1027,2 50
23.06.2019 23:00:00 12,3 4,8 7 4 NW 1026,5 50
23.06.2019 22:00:00 13,6 2,2 7 4 WNW 1026,2 50
23.06.2019 21:00:00 15,4 3,8 7 4 WNW 1025,7 50
23.06.2019 20:00:00 16,1 3,5 7 4 W 1025,3 50
23.06.2019 19:00:00 16,6 2,2 11 6 WNW 1025,4 40
23.06.2019 18:00:00 17,4 3,7 14 8 W 1025,6 50
23.06.2019 17:00:00 17,7 5,0 14 8 W 1025,6 50
23.06.2019 16:00:00 18,3 5,2 11 6 W 1025,4 25
23.06.2019 15:00:00 17,2 4,5 14 8 WNW 1025,5 40
23.06.2019 14:00:00 17,8 6,6 14 8 W 1025,4 50
23.06.2019 13:00:00 17,3 6,2 11 6 WSW 1025,7 45
23.06.2019 12:00:00 17,2 7,5 11 6 W 1025,6 50
23.06.2019 11:00:00 16,7 7,3 11 6 W 1025,7 50
23.06.2019 10:00:00 15,9 7,9 14 8 SW 1025,6 45
23.06.2019 09:00:00 15,1 8,3 11 6 SW 1025,8 45
23.06.2019 08:00:00 13,4 10,2 7 4 SW 1025,7 40
23.06.2019 07:00:00 12,3 10,4 11 6 SSW 1025,3 30
23.06.2019 06:00:00 11,0 9,4 11 6 SW 1024,9 35
23.06.2019 05:00:00 8,7 7,6 11 6 SW 1025,2 30
23.06.2019 04:00:00 8,6 7,5 11 6 SSW 1025,0 40
23.06.2019 03:00:00 8,8 7,2 11 6 SSW 1024,8 50
23.06.2019 02:00:00 8,9 6,9 11 6 SSW 1024,8 50
23.06.2019 01:00:00 9,2 7,0 11 6 SSW 1024,8 45
23.06.2019 00:00:00 9,5 6,8 7 4 SW 1024,6 50
22.06.2019 23:00:00 10,5 6,8 7 4 WSW 1024,3 50
22.06.2019 22:00:00 11,2 6,3 11 6 W 1024,1 50
22.06.2019 21:00:00 12,6 5,5 11 6 WSW 1023,8 50
22.06.2019 20:00:00 13,6 6,2 18 10 W 1023,8 50
22.06.2019 19:00:00 14,2 7,0 18 10 W 1023,8 35
22.06.2019 18:00:00 14,5 7,1 22 12 W 1023,7 50
22.06.2019 17:00:00 15,2 6,7 18 10 WSW 1023,6 35
22.06.2019 16:00:00 14,7 6,8 22 12 W 1023,5 40
22.06.2019 15:00:00 15,0 6,8 22 12 W 1023,6 35
22.06.2019 14:00:00 15,1 6,1 18 10 W 1023,4 25
22.06.2019 13:00:00 15,1 6,4 25 14 WSW 1023,1 35
22.06.2019 12:00:00 14,1 6,0 22 12 WSW 1022,8 40
22.06.2019 11:00:00 13,9 6,0 25 14 WSW 1022,4 50
22.06.2019 10:00:00 13,6 6,5 22 12 WSW 1021,9 35
22.06.2019 09:00:00 13,2 6,5 25 14 W 1021,3 45
22.06.2019 08:00:00 12,5 7,0 25 14 W 1020,7 50
22.06.2019 07:00:00 11,9 6,6 22 12 W 1020,1 35
22.06.2019 06:00:00 11,2 6,9 22 12 W 1019,8 30
22.06.2019 05:00:00 10,6 6,7 18 10 WSW 1019,3 45
22.06.2019 04:00:00 10,8 6,9 18 10 W 1018,9 45
22.06.2019 03:00:00 10,8 7,3 14 8 WSW 1018,3 50
22.06.2019 02:00:00 10,5 7,2 18 10 WSW 1017,6 50
22.06.2019 01:00:00 10,7 7,2 22 12 WSW 1017,4 50
22.06.2019 00:00:00 11,0 7,5 18 10 WSW 1016,8 50
21.06.2019 23:00:00 10,3 7,4 14 8 SW 1016,5 50
21.06.2019 22:00:00 9,2 7,3 11 6 SSW 1016,2 50
21.06.2019 21:00:00 10,8 7,9 11 6 WSW 1015,8 50
21.06.2019 20:00:00 10,6 7,3 14 8 SW 1015,4 50
21.06.2019 19:00:00 11,8 8,3 11 6 WSW 1015,3 35
21.06.2019 18:00:00 13,1 9,7 7 4 W 1015,0 40
21.06.2019 17:00:00 11,9 9,5 18 10 W 1014,8 4,6
21.06.2019 16:00:00 14,5 7,1 22 12 SW 1014,6 50
21.06.2019 15:00:00 16,9 5,5 14 8 WSW 1014,2 29
21.06.2019 14:00:00 16,6 5,2 18 10 SW 1014,1 50
21.06.2019 13:00:00 15,8 6,5 18 10 SW 1014,2 40
21.06.2019 12:00:00 15,4 6,7 18 10 WSW 1013,9 40
21.06.2019 11:00:00 15,5 8,2 22 12 WSW 1013,7 30
21.06.2019 10:00:00 13,6 8,9 18 10 W 1013,6 45
21.06.2019 09:00:00 13,8 9,4 18 10 WSW 1013,1 50
21.06.2019 08:00:00 13,1 9,5 18 10 WSW 1012,8 35
21.06.2019 07:00:00 13,2 10,2 11 6 WSW 1012,5 40
21.06.2019 06:00:00 11,7 10,3 7 4 SW 1012,2 45
21.06.2019 05:00:00 10,8 9,2 7 4 SW 1012,1 45
21.06.2019 04:00:00 11,3 9,7 11 6 WSW 1011,8 45
21.06.2019 03:00:00 11,7 9,9 11 6 WSW 1011,5 50
21.06.2019 02:00:00 12,0 10,1 11 6 SW 1011,4 50
21.06.2019 01:00:00 11,8 9,9 11 6 WSW 1011,4 50
21.06.2019 00:00:00 12,0 9,7 11 6 WSW 1011,0 50
20.06.2019 23:00:00 12,3 10,2 14 8 W 1010,3 50
20.06.2019 22:00:00 13,1 11,5 14 8 W 1009,8 50
20.06.2019 21:00:00 13,7 12,8 11 6 W 1009,1 18
20.06.2019 20:00:00 14,6 13,6 11 6 W 1008,3 9
20.06.2019 19:00:00 15,2 13,9 18 10 WSW 1007,6 20
20.06.2019 18:00:00 17,7 13,6 22 12 SW 1006,9 50
20.06.2019 17:00:00 16,9 13,8 18 10 SW 1007,0 35
20.06.2019 16:00:00 18,2 14,5 22 12 SSW 1006,5 35
20.06.2019 15:00:00 19,5 14,7 25 14 SSW 1006,1 45
20.06.2019 14:00:00 19,6 14,6 22 12 SSW 1006,0 40
20.06.2019 13:00:00 19,6 14,6 14 8 WSW 1005,9 45
20.06.2019 12:00:00 19,1 15,0 11 6 SSW 1005,7 40
20.06.2019 11:00:00 16,7 15,1 7 4 SSW 1005,5 16
20.06.2019 10:00:00 16,8 15,3 22 12 SSW 1005,7 25
20.06.2019 09:00:00 17,8 14,5 14 8 SSW 1004,9 45
20.06.2019 08:00:00 18,6 14,5 22 12 SSW 1004,7 40
20.06.2019 07:00:00 17,3 14,0 11 6 SSE 1005,2 50
20.06.2019 06:00:00 16,4 14,1 18 10 SSE 1005,6 45
20.06.2019 05:00:00 16,4 14,1 18 10 SSE 1005,6 45
20.06.2019 04:00:00 16,5 14,3 11 6 SE 1005,1 45
20.06.2019 03:00:00 16,8 14,4 18 10 SSE 1006,0 30
20.06.2019 02:00:00 17,3 14,4 22 12 S 1006,4 40
20.06.2019 01:00:00 19,2 12,9 18 10 SSE 1006,6 50
20.06.2019 00:00:00 19,7 13,2 18 10 SSE 1006,3 50
19.06.2019 23:00:00 20,1 14,2 18 10 SE 1006,4 50
19.06.2019 22:00:00 21,0 12,9 11 6 SE 1006,6 50
19.06.2019 21:00:00 22,6 12,8 18 10 S 1006,7 50
19.06.2019 20:00:00 23,2 11,3 18 10 S 1006,9 50
19.06.2019 19:00:00 24,5 12,4 25 14 S 1006,8 50
19.06.2019 18:00:00 24,7 13,6 18 10 S 1007,2 27
19.06.2019 17:00:00 24,3 12,9 18 10 S 1008,2 50
19.06.2019 16:00:00 24,6 15,2 22 12 SSW 1008,6 50
19.06.2019 15:00:00 24,9 15,0 11 6 SSW 1009,1 19
19.06.2019 14:00:00 24,2 14,3 7 4 S 1009,5 40
19.06.2019 13:00:00 23,0 15,1 11 6 SW 1010,3 50
19.06.2019 12:00:00 21,9 16,2 11 6 SW 1010,6 50
19.06.2019 11:00:00 20,5 15,5 7 4 SSW 1010,9 35
19.06.2019 10:00:00 19,2 15,3 0 0 N 1011,3 40
19.06.2019 09:00:00 17,8 15,2 4 2 N 1011,7 10
19.06.2019 08:00:00 16,6 15,0 4 2 WNW 1011,9 19
19.06.2019 07:00:00 16,0 14,7 4 2 SSW 1011,9 8
19.06.2019 06:00:00 15,2 14,2 4 2 SSW 1012,2 13
19.06.2019 05:00:00 14,6 14,0 7 4 SSE 1012,4 11
19.06.2019 04:00:00 14,1 13,5 7 4 SSW 1012,6 5
19.06.2019 03:00:00 15,1 14,1 11 6 S 1012,7 17
19.06.2019 02:00:00 15,8 14,2 11 6 S 1013,0 25
19.06.2019 01:00:00 15,3 13,5 11 6 SSW 1013,2 35
19.06.2019 00:00:00 17,5 14,2 22 12 S 1013,0 45
18.06.2019 23:00:00 17,0 13,9 14 8 S 1013,3 50
18.06.2019 22:00:00 18,2 14,1 18 10 S 1013,5 45
18.06.2019 21:00:00 18,2 14,1 14 8 S 1013,4 45
18.06.2019 20:00:00 18,8 14,1 14 8 SSW 1013,6 50
18.06.2019 19:00:00 19,3 13,7 22 12 SW 1014,1 50
18.06.2019 18:00:00 21,0 13,4 25 14 SSW 1014,0 35
18.06.2019 17:00:00 20,8 13,0 25 14 SW 1014,7 45
18.06.2019 16:00:00 22,5 13,3 32 18 S 1014,4 28
18.06.2019 15:00:00 22,7 12,3 36 19 SSW 1015,1 30
18.06.2019 14:00:00 22,2 12,4 40 21 SSW 1015,5 50
18.06.2019 13:00:00 20,2 12,2 32 18 SSW 1016,1 24
18.06.2019 12:00:00 22,3 12,3 36 19 SSW 1015,8 45
18.06.2019 11:00:00 20,7 11,9 29 16 S 1016,2 50

tt = Température de l'air
td = dewpoint
ff = Vitesse du vent
dd = Direction du vent
ppp = reduced air pressure
vv = visibility

stations d'obs. à proximité